Wetterstats.de || Aktuelle Messwerte || Aktuelle Wetterkarten NEU! || Radar / Satellit NEU! || Wetterarchiv || Langzeitwerte NEU! || Klim. Kenntage || Met. Ereignisse || Agrarwerte || Echtzeitwerte

Monatsübersicht für April 2020 Diagramm
 
Wetter Information zur Wetteranzeige
Zeitraffer
Tageslänge (hh:mm)
Höchsttemperatur in °C
Uhrzeit
Tiefsttemperatur in °C
Uhrzeit
Luftfeuchte (max., in %)
Uhrzeit
Luftfeuchte (min., in %)
Uhrzeit
Luftdruck (max., in hPa)
Uhrzeit
Luftdruck (min., in hPa)
Uhrzeit
Luftdruck (Ø, in hPa)
Regenrate (max, mm/h)
Uhrzeit
Niederschlag in mm
Verdunstung in mm
Solar in W/m² (Ø)
Solar in W/m² (max.)
UV-Index (max.)
Sonnenscheindauer (hh:mm)
Windrichtung (Ø)
Windstärke (Ø in km/h)
Windstärke (Ø in bft)
Windböe (max., in km/h)
Uhrzeit
Windböe (max., in bft)
Uhrzeit
Taupunkt (max., in °C)
Uhrzeit
Taupunkt (min., in °C)
Uhrzeit
Windchill (min., in °C)
Uhrzeit
Gewitterindex (max.)
Uhrzeit
Waldbrandindex (max.)
Uhrzeit
Graslandfeuerindex (max.)
Uhrzeit
Staubsturm-Index (max.)
Uhrzeit
08
Kein Zeitraffer vorhanden
13:33
18.4
19:45 Uhr
6.6
23:55 Uhr

74
23:55 Uhr
44
19:45 Uhr
1021.6
20:30 Uhr

1020.8
23:30 Uhr
1021.3
0,000
19:45 Uhr
0,000
0.076
0
0
19:45 Uhr
0.0
19:45 Uhr

00:00:00
0,0
0
4,8
20:50 Uhr

1
6.0
19:55 Uhr
2.2
23:50 Uhr
6.6
23:55 Uhr
0
19:45 Uhr

00:00 Uhr

00:00 Uhr

00:00 Uhr
09
Kein Zeitraffer vorhanden
13:37
19.9
13:55 Uhr
1.4
06:20 Uhr

89
07:40 Uhr
38
13:55 Uhr
1024.6
23:45 Uhr

1019.1
05:30 Uhr
1021.1
0,000
00:05 Uhr
0,000
2.464
287
756
11:40 Uhr
3.3
13:10 Uhr

05:30:00
2,5
1
27,4
17:00 Uhr

4
7.5
11:30 Uhr
-0.6
06:15 Uhr
1.4
06:20 Uhr
0
00:05 Uhr

00:00 Uhr

00:00 Uhr

00:00 Uhr
10
Kein Zeitraffer vorhanden
13:42
17.5
15:45 Uhr
-1.5
06:45 Uhr

92
08:40 Uhr
31
13:45 Uhr
1026.2
07:45 Uhr

1022.5
17:30 Uhr
1024.5
0,000
00:05 Uhr
0,000
2.718
344
677
13:05 Uhr
3.4
12:45 Uhr

09:05:00
1,2
0
19,3
14:50 Uhr

3
4.5
09:40 Uhr
-3.2
06:40 Uhr
-1.5
06:45 Uhr
0
00:05 Uhr

00:00 Uhr

00:00 Uhr

00:00 Uhr
11
Kein Zeitraffer vorhanden
13:46
17.6
17:00 Uhr
-0.7
05:40 Uhr

92
08:30 Uhr
34
15:05 Uhr
1026.7
10:30 Uhr

1022.4
23:45 Uhr
1024.8
0,000
00:05 Uhr
0,000
2.642
344
670
12:50 Uhr
3.5
12:55 Uhr

09:10:00
0,8
0
14,5
13:40 Uhr

3
4.6
09:30 Uhr
-2.6
04:50 Uhr
-0.7
05:40 Uhr
0
00:05 Uhr

00:00 Uhr

00:00 Uhr

00:00 Uhr
12
Kein Zeitraffer vorhanden
13:49
24.0
16:30 Uhr
-0.8
06:30 Uhr

92
08:25 Uhr
27
15:05 Uhr
1022.2
00:05 Uhr

1008.5
23:45 Uhr
1014.9
7,200
21:15 Uhr
0,800
3.226
353
684
12:50 Uhr
3.6
12:50 Uhr

08:30:00
1,7
0
24,1
21:10 Uhr

4
10.7
21:35 Uhr
-2.4
06:30 Uhr
-0.8
06:30 Uhr
3
21:30 Uhr

00:00 Uhr

00:00 Uhr

00:00 Uhr
13
Kein Zeitraffer vorhanden
13:54
11.9
16:00 Uhr
-0.1
23:40 Uhr

91
05:05 Uhr
34
17:25 Uhr
1014.8
21:15 Uhr

1007.1
04:30 Uhr
1011.3
2,400
06:55 Uhr
0,600
1.702
206
958
12:55 Uhr
3.4
12:55 Uhr

02:10:00
3,2
1
30,6
13:25 Uhr

5
8.0
00:05 Uhr
-5.1
17:45 Uhr
-0.1
23:40 Uhr
0
00:05 Uhr

00:00 Uhr

00:00 Uhr

00:00 Uhr
14
Kein Zeitraffer vorhanden
13:58
11.3
16:50 Uhr
-2.0
05:50 Uhr

89
07:25 Uhr
31
17:15 Uhr
1021.0
21:30 Uhr

1015.0
00:05 Uhr
1018.8
0,000
00:05 Uhr
0,000
1.880
232
862
12:30 Uhr
3.8
14:00 Uhr

04:30:00
3,5
1
27,4
17:00 Uhr

4
-0.2
08:35 Uhr
-5.7
18:20 Uhr
-2.0
05:50 Uhr
0
00:05 Uhr

00:00 Uhr

00:00 Uhr

00:00 Uhr
15
Kein Zeitraffer vorhanden
14:02
15.0
17:05 Uhr
3.1
00:05 Uhr

77
06:55 Uhr
41
17:25 Uhr
1021.4
01:15 Uhr

1017.8
23:30 Uhr
1019.6
0,000
00:05 Uhr
0,000
2.870
311
846
13:45 Uhr
4.0
13:45 Uhr

07:25:00
5,5
1
35,4
12:45 Uhr

5
3.4
12:55 Uhr
-2.8
00:05 Uhr
2.2
09:05 Uhr
0
00:05 Uhr

00:00 Uhr

00:00 Uhr

00:00 Uhr


 
Wetter Information zur Wetteranzeige
Zeitraffer
Tageslänge (hh:mm)
Höchsttemperatur in °C
Uhrzeit
Tiefsttemperatur in °C
Uhrzeit
Luftfeuchte (max., in %)
Uhrzeit
Luftfeuchte (min., in %)
Uhrzeit
Luftdruck (max., in hPa)
Uhrzeit
Luftdruck (min., in hPa)
Uhrzeit
Luftdruck (Ø, in hPa)
Regenrate (max, mm/h)
Uhrzeit
Niederschlag in mm
Verdunstung in mm
Solar in W/m² (Ø)
Solar in W/m² (max.)
UV-Index (max.)
Sonnenscheindauer (hh:mm)
Windrichtung (Ø)
Windstärke (Ø in km/h)
Windstärke (Ø in bft)
Windböe (max., in km/h)
Uhrzeit
Windböe (max., in bft)
Uhrzeit
Taupunkt (max., in °C)
Uhrzeit
Taupunkt (min., in °C)
Uhrzeit
Windchill (min., in °C)
Uhrzeit
Gewitterindex (max.)
Uhrzeit
Waldbrandindex (max.)
Uhrzeit
Graslandfeuerindex (max.)
Uhrzeit
Staubsturm-Index (max.)
Uhrzeit
16
Kein Zeitraffer vorhanden
14:05
19.9
15:05 Uhr
2.3
04:50 Uhr

79
05:00 Uhr
24
14:20 Uhr
1017.8
00:05 Uhr

1012.6
19:00 Uhr
1015.0
0,000
00:05 Uhr
0,000
3.454
340
695
12:40 Uhr
3.5
12:35 Uhr

08:35:00
3,4
1
29,0
16:10 Uhr

4
5.5
22:35 Uhr
-1.8
14:20 Uhr
2.3
04:50 Uhr
0
00:05 Uhr

00:00 Uhr

00:00 Uhr

00:00 Uhr
17
Kein Zeitraffer vorhanden
14:09
17.8
14:45 Uhr
3.1
04:20 Uhr

90
07:25 Uhr
33
15:40 Uhr
1017.2
10:30 Uhr

1014.3
00:05 Uhr
1016.1
0,000
00:05 Uhr
0,000
2.997
358
779
11:50 Uhr
3.6
12:30 Uhr

07:45:00
1,2
0
22,5
15:05 Uhr

4
6.6
11:25 Uhr
0.6
21:30 Uhr
3.1
04:20 Uhr
0
00:05 Uhr

00:00 Uhr

00:00 Uhr

00:00 Uhr
18
Kein Zeitraffer vorhanden
14:14
18.9
15:10 Uhr
1.5
06:35 Uhr

74
07:00 Uhr
26
14:50 Uhr
1018.3
06:45 Uhr

1015.1
18:00 Uhr
1016.7
0,000
00:05 Uhr
0,000
3.581
382
716
12:55 Uhr
4.0
12:25 Uhr

09:59:00
2,2
1
19,3
13:20 Uhr

3
1.4
13:25 Uhr
-3.4
22:05 Uhr
1.5
06:35 Uhr
0
00:05 Uhr

00:00 Uhr

00:00 Uhr

00:00 Uhr
19
Kein Zeitraffer vorhanden
14:18
15.3
15:25 Uhr
1.7
23:55 Uhr

67
02:40 Uhr
30
17:00 Uhr
1023.9
23:45 Uhr

1016.6
00:05 Uhr
1020.3
0,000
00:05 Uhr
0,000
3.454
380
707
13:10 Uhr
3.6
13:10 Uhr

10:00:00
3,3
1
27,4
12:35 Uhr

4
0.8
12:15 Uhr
-4.1
23:55 Uhr
1.7
23:55 Uhr
0
00:05 Uhr

00:00 Uhr

00:00 Uhr

00:00 Uhr
20
Kein Zeitraffer vorhanden
14:21
17.3
15:55 Uhr
-1.7
06:40 Uhr

89
07:30 Uhr
29
15:30 Uhr
1026.1
11:00 Uhr

1023.1
18:00 Uhr
1024.7
0,000
00:05 Uhr
0,000
3.327
378
721
13:30 Uhr
3.9
13:05 Uhr

10:00:00
2,4
1
24,1
12:10 Uhr

4
1.5
12:15 Uhr
-4.3
00:10 Uhr
-1.7
06:40 Uhr
0
00:05 Uhr

00:00 Uhr

00:00 Uhr

00:00 Uhr
21
Kein Zeitraffer vorhanden
14:25
19.2
16:35 Uhr
-0.8
06:30 Uhr

89
07:10 Uhr
32
16:40 Uhr
1025.6
07:30 Uhr

1023.8
16:45 Uhr
1024.8
0,000
00:05 Uhr
0,000
3.505
372
703
12:35 Uhr
3.8
12:25 Uhr

09:50:00
2,7
1
29,0
14:15 Uhr

4
3.4
13:00 Uhr
-3.0
06:10 Uhr
-0.8
06:30 Uhr
0
00:05 Uhr

00:00 Uhr

00:00 Uhr

00:00 Uhr
22
Zeitraffer
14:29
21.0
15:45 Uhr
0.2
05:45 Uhr

90
06:55 Uhr
31
14:40 Uhr
1026.0
08:30 Uhr

1022.7
17:45 Uhr
1024.5
0,000
00:05 Uhr
0,000
3.454
379
721
12:25 Uhr
3.9
12:30 Uhr

09:20:00
1,9
0
22,5
13:45 Uhr

4
5.8
12:35 Uhr
-1.8
05:10 Uhr
0.2
05:45 Uhr
0
00:05 Uhr

00:00 Uhr

00:00 Uhr

00:00 Uhr
23
Zeitraffer
14:33
22.5
16:10 Uhr
1.2
05:46 Uhr

90
05:40 Uhr
30
15:15 Uhr
1024.1
07:15 Uhr

1015.2
23:45 Uhr
1021.1
0,000
00:05 Uhr
0,000
3.454
376
719
13:10 Uhr
4.2
13:10 Uhr

09:35:00
1,1
0
16,1
10:30 Uhr

3
6.9
14:00 Uhr
-0.3
05:30 Uhr
1.2
05:46 Uhr
0
00:05 Uhr

00:00 Uhr

00:00 Uhr

00:00 Uhr
24
Zeitraffer
14:37
23.3
15:30 Uhr
4.1
04:05 Uhr

90
05:40 Uhr
28
15:30 Uhr
1015.1
00:05 Uhr

1003.0
19:15 Uhr
1007.4
0,000
00:05 Uhr
0,000
3.734
349
821
11:45 Uhr
3.6
13:00 Uhr

07:05:00
3,0
1
27,4
14:55 Uhr

4
7.4
11:50 Uhr
-0.3
23:40 Uhr
4.1
04:05 Uhr
0
00:05 Uhr

00:00 Uhr

00:00 Uhr

00:00 Uhr
25
Zeitraffer
14:41
15.2
13:10 Uhr
7.9
04:30 Uhr

80
09:15 Uhr
42
12:55 Uhr
1009.7
14:30 Uhr

1003.5
00:15 Uhr
1007.3
0,000
00:05 Uhr
0,000
2.438
256
979
13:20 Uhr
4.0
13:40 Uhr

02:55:00
4,1
1
25,7
02:55 Uhr

4
5.6
09:40 Uhr
0.3
00:05 Uhr
5.1
03:35 Uhr
0
00:05 Uhr

00:00 Uhr

00:00 Uhr

00:00 Uhr
26
Zeitraffer
14:45
19.4
15:55 Uhr
1.9
05:55 Uhr

89
06:10 Uhr
31
16:00 Uhr
1010.9
11:30 Uhr

1008.7
19:45 Uhr
1009.7
0,000
00:05 Uhr
0,000
2.692
279
1016
13:05 Uhr
4.0
13:00 Uhr

05:00:00
1,2
0
19,3
16:05 Uhr

3
4.8
08:35 Uhr
0.1
05:40 Uhr
1.9
05:55 Uhr
0
00:05 Uhr

00:00 Uhr

00:00 Uhr

00:00 Uhr
27
Zeitraffer
14:49
23.0
17:15 Uhr
1.3
05:55 Uhr

90
05:55 Uhr
28
17:20 Uhr
1009.2
03:30 Uhr

1004.5
23:30 Uhr
1007.0
0,000
00:05 Uhr
0,000
3.734
382
753
13:35 Uhr
3.5
12:50 Uhr

09:20:00
2,0
0
25,7
12:25 Uhr

4
5.8
10:40 Uhr
-0.2
05:55 Uhr
1.3
05:55 Uhr
0
00:05 Uhr

00:00 Uhr

00:00 Uhr

00:00 Uhr
28
Zeitraffer
14:52
25.1
15:15 Uhr
4.4
05:45 Uhr

92
23:00 Uhr
29
15:15 Uhr
1004.5
00:05 Uhr

1000.4
19:00 Uhr
1002.6
2,400
21:00 Uhr
0,600
3.404
331
735
13:30 Uhr
4.5
12:40 Uhr

06:30:00
1,7
0
25,7
12:35 Uhr

4
12.3
22:00 Uhr
2.1
05:45 Uhr
4.4
05:45 Uhr
5
22:00 Uhr

00:00 Uhr

00:00 Uhr

00:00 Uhr
29
Zeitraffer
14:56
17.1
16:05 Uhr
9.0
07:55 Uhr

93
21:30 Uhr
68
16:10 Uhr
1006.2
21:45 Uhr

1000.6
05:15 Uhr
1003.2
4,800
19:15 Uhr
2,400
1.321
184
607
15:20 Uhr
3.7
14:45 Uhr

02:25:00
0,9
0
11,3
07:10 Uhr

2
11.8
15:25 Uhr
7.5
07:45 Uhr
9.0
07:55 Uhr
3
00:05 Uhr

00:00 Uhr

00:00 Uhr

00:00 Uhr
30
Zeitraffer
15:00
19.9
12:45 Uhr
7.3
05:00 Uhr

95
05:30 Uhr
56
12:50 Uhr
1005.9
00:15 Uhr

1001.5
23:30 Uhr
1003.7
2,400
16:45 Uhr
0,200
1.854
206
856
12:45 Uhr
5.8
12:40 Uhr

03:25:00
1,8
0
24,1
12:00 Uhr

4
12.3
11:55 Uhr
6.4
05:00 Uhr
7.3
05:00 Uhr
3
11:50 Uhr

00:00 Uhr

00:00 Uhr

00:00 Uhr
Stationsstandorte || Wetterblog || Wissenswertes || Downloads || Seitenhistorie || Partner || Impressum / Datenschutz